Wind_Speed
2 5 9 6 4 4 9 7 7 6 3 3 4 5 3 7 4 2 13 5 13 10 14 21 23 26 30 31 30 29 29 27 25 23 23 25 25 24 23 22 22 22 21 22 23 23 23 22 22
3 8 8 3 5 10 11 12 12 7 9 13 4 8 6 4 5 3 10 17 18 12 12 23 21 25 29 32 31 30 30 29 26 24 25 25 25 24 23 23 22 21 21 20 22 23 22 20 20
5 11 4 4 6 13 9 1 8 11 10 8 6 7 5 4 7 8 18 21 19 11 8 24 21 26 29 33 32 30 31 31 28 25 26 25 25 24 24 23 22 22 21 21 21 22 22 21 20
3 2 1 7 15 8 6 5 10 10 1 11 13 4 5 10 4 15 21 21 18 13 5 23 24 25 29 34 32 32 32 32 29 27 26 25 25 25 25 23 23 21 21 20 21 22 21 21 21
4 3 6 7 12 5 3 10 10 8 4 7 11 6 1 3 11 16 22 23 22 13 10 11 26 25 27 31 31 32 32 32 30 28 26 25 26 26 26 24 22 22 22 23 23 23 22 23 24
3 2 6 13 15 4 2 12 7 8 5 8 9 9 3 3 15 22 24 25 24 23 12 9 22 27 28 28 31 33 34 33 31 29 28 26 27 27 26 24 24 25 24 23 24 24 24 24 26
4 5 11 15 12 10 4 11 6 9 11 4 13 7 4 3 20 26 26 25 26 27 23 11 11 30 26 27 28 32 34 34 32 30 29 29 29 28 25 26 27 25 25 25 25 27 26 28 29
1 3 5 3 6 4 5 9 7 8 9 12 3 3 6 19 26 26 25 25 25 26 26 17 8 19 29 31 30 31 33 35 34 32 31 31 29 28 28 28 28 27 26 27 27 28 30 29 28
1 5 6 3 3 3 6 7 6 9 13 12 9 14 11 22 26 29 27 24 24 23 27 22 14 9 21 31 35 37 35 36 35 33 32 32 30 30 29 30 30 29 29 29 29 30 30 29 29
3 3 4 2 3 6 12 11 13 9 15 19 19 12 18 23 23 25 26 26 25 25 25 27 20 15 12 24 24 38 35 37 36 36 36 33 32 33 32 31 32 32 32 33 31 30 31 30 29
4 3 1 3 5 8 10 12 5 13 13 15 17 24 21 19 22 23 22 23 23 23 22 25 25 21 17 16 25 32 45 39 41 38 39 34 36 36 35 35 35 36 36 36 33 34 28 27 23
1 3 2 4 5 6 8 8 10 16 22 17 20 16 13 21 21 20 22 23 23 21 20 22 24 25 21 19 24 21 21 34 45 44 42 42 40 40 38 41 41 41 40 37 40 36 31 27 22
5 5 7 8 10 9 9 12 14 22 18 16 12 15 20 22 21 19 17 19 20 20 21 21 22 24 22 25 21 21 20 8 33 47 47 46 43 43 45 46 46 44 40 41 40 36 32 28 24
6 9 11 7 9 12 9 13 12 6 6 9 19 22 21 21 17 16 15 16 18 19 20 19 20 19 24 23 23 22 22 15 19 46 49 48 46 48 50 51 49 45 41 40 38 35 32 28 24
4 7 7 2 10 8 10 13 7 6 14 20 22 18 15 9 9 12 15 16 18 19 20 19 19 19 22 24 26 23 17 20 19 24 51 50 50 53 54 53 51 46 41 41 37 35 32 29 27
5 3 8 4 9 3 7 9 12 13 18 16 9 6 5 6 9 13 16 17 19 22 22 22 20 19 18 21 21 25 22 23 26 14 40 55 54 56 57 55 53 47 43 41 39 36 33 31 30
3 10 14 11 5 7 4 20 15 18 10 2 2 4 6 8 12 17 19 20 21 23 24 25 23 20 19 20 18 23 27 22 30 14 33 56 59 59 60 57 55 49 46 42 40 35 35 35 34
14 11 12 14 12 7 20 21 18 9 4 4 1 3 8 12 16 21 24 25 24 24 24 24 23 19 19 19 20 16 23 24 25 26 23 29 62 62 61 60 57 52 49 45 42 39 38 36 37
13 15 16 17 9 20 13 21 15 11 7 6 4 8 12 15 19 25 28 28 27 24 23 21 21 19 16 20 18 19 22 30 26 25 20 28 64 64 64 60 58 54 50 48 44 42 41 40 39
14 18 11 12 11 19 12 20 10 2 6 5 6 9 13 19 27 35 36 30 25 24 23 21 20 20 15 18 15 19 23 23 24 19 19 15 61 67 67 61 58 57 53 50 46 43 44 41 42
19 7 14 21 26 2 11 5 3 5 7 9 8 8 13 18 34 42 37 30 26 24 24 24 22 22 20 18 19 17 20 23 32 26 32 15 32 75 67 63 62 60 57 53 48 44 41 46 43
15 9 20 22 10 4 7 6 2 3 6 7 5 11 17 27 40 36 32 31 29 27 25 25 24 22 23 19 21 18 18 20 35 38 33 16 21 65 67 64 63 62 59 54 50 45 39 45 48
8 24 20 8 4 4 1 4 3 4 5 6 9 13 20 38 39 39 33 30 31 29 26 26 25 24 23 22 20 21 18 20 30 35 27 16 26 56 72 68 65 62 60 55 50 47 44 41 41
17 17 1 3 2 3 4 5 7 3 7 11 12 18 33 44 41 37 33 32 31 29 28 26 26 25 22 22 22 24 24 21 30 38 29 15 34 51 72 69 66 63 61 58 52 46 42 42 40
17 14 5 2 2 4 6 9 11 9 9 9 13 26 45 46 44 43 40 36 34 32 30 28 26 25 23 23 22 24 23 23 29 40 36 18 28 52 71 70 68 64 62 59 53 50 42 40 38
8 7 4 6 7 12 15 7 3 4 8 10 20 42 47 48 47 45 41 41 37 34 32 30 28 28 25 24 25 26 30 30 28 47 40 25 12 38 73 69 67 62 62 58 55 50 45 40 37
5 5 3 6 7 5 6 7 17 1 8 17 36 45 47 49 48 48 45 40 39 38 33 30 31 31 27 25 25 26 30 29 28 46 45 32 16 26 68 71 64 61 61 59 56 52 48 42 36
3 2 2 2 6 8 8 13 10 10 14 26 31 41 49 52 51 50 48 44 41 36 34 31 29 31 27 26 26 28 33 33 34 43 52 39 14 22 56 70 65 61 62 61 58 55 49 45 38
1 0 3 3 4 5 8 7 3 8 19 28 32 46 53 55 54 52 51 48 41 38 32 29 27 28 28 27 27 29 34 35 36 38 53 39 20 28 49 68 66 63 64 64 60 55 51 47 38
0 1 2 4 2 8 9 10 5 9 28 35 40 53 55 54 54 52 51 47 46 37 31 29 27 27 26 26 26 32 35 39 37 42 49 40 30 32 45 59 70 64 64 67 60 57 52 49 41
Wind_Direction
339 146 147 139 225 243 245 240 272 234 243 353 288 222 195 30 330 15 336 321 321 282 237 203 210 210 200 194 191 187 185 181 178 175 171 164 162 160 159 157 152 150 147 142 142 140 138 136 135
125 142 143 177 240 239 245 227 230 272 354 317 273 264 242 107 46 22 1 336 336 345 227 211 212 214 202 198 194 192 189 186 182 179 174 168 166 163 162 159 156 154 151 147 145 142 140 135 133
144 157 189 226 231 242 271 36 301 331 343 343 303 28 19 33 34 12 346 344 335 333 227 208 209 217 206 201 196 196 192 188 186 182 177 173 169 166 165 163 160 157 157 155 150 145 141 136 135
123 164 238 247 238 247 300 24 335 328 252 19 349 271 67 58 45 355 351 351 335 330 317 211 209 214 212 206 197 196 195 190 187 186 182 178 172 169 169 168 164 163 162 160 155 149 143 137 133
149 190 238 245 259 258 67 360 331 328 326 342 356 7 21 68 9 347 352 354 346 331 323 219 205 202 219 210 202 197 194 192 190 187 186 182 175 172 174 170 168 167 158 153 151 145 143 140 136
188 240 234 252 249 159 94 3 329 319 317 324 347 318 263 213 332 337 343 349 344 335 323 294 204 205 206 213 208 201 197 196 192 189 187 185 176 178 177 172 169 162 161 156 153 147 142 141 139
238 227 265 271 262 213 360 355 10 334 316 322 329 299 304 289 333 330 334 337 337 330 336 313 212 205 212 201 208 206 202 198 194 192 189 183 178 181 178 172 169 168 163 159 155 148 147 145 141
192 248 267 242 266 258 3 340 319 323 320 319 310 306 314 324 329 327 331 329 329 327 328 324 270 199 208 205 201 207 209 200 196 195 188 178 180 180 178 175 172 169 166 162 156 151 151 147 144
73 243 261 282 291 10 336 330 319 301 285 295 286 300 309 327 326 322 330 332 330 328 324 330 292 229 200 203 205 205 198 204 197 193 187 184 181 178 177 175 174 171 168 164 160 159 154 150 145
340 267 11 21 333 306 309 308 313 307 305 300 297 306 313 328 335 335 335 334 336 332 326 323 313 279 232 200 198 203 191 206 199 191 187 183 182 178 174 176 175 170 166 165 165 157 150 147 147
20 4 8 235 294 307 303 291 284 300 290 297 306 313 317 329 332 335 333 333 332 331 328 322 313 299 273 217 203 200 190 201 201 191 187 181 182 178 176 175 174 169 169 166 155 153 147 145 144
61 34 287 304 311 302 294 293 279 275 277 300 308 304 313 326 330 333 332 332 334 335 333 320 319 305 280 249 219 236 213 178 194 193 187 189 184 178 175 175 173 171 170 162 157 159 157 157 152
31 337 297 293 298 281 287 268 292 286 289 294 308 308 305 316 321 326 329 331 333 334 324 318 311 308 290 276 274 246 243 247 177 196 192 194 185 180 178 177 177 175 170 164 167 165 165 162 163
327 305 292 301 297 296 288 295 307 314 330 297 309 306 303 309 319 332 346 347 342 342 336 322 311 306 295 282 283 272 223 237 170 190 195 194 188 182 181 179 179 177 171 170 168 170 169 170 171
323 312 300 234 330 311 317 283 222 286 322 310 309 308 306 319 337 348 353 350 347 344 349 335 323 313 302 289 281 280 239 224 249 166 200 195 191 186 186 183 181 178 172 172 170 171 172 170 165
347 276 336 329 319 308 325 283 293 310 321 314 335 14 19 2 354 347 343 341 338 336 336 340 329 316 306 289 281 283 265 234 228 248 182 199 192 188 186 185 184 178 177 175 178 175 172 167 162
39 316 314 323 298 310 287 303 302 320 315 331 40 27 11 354 347 344 338 332 330 329 326 329 324 318 311 300 283 285 272 236 230 232 175 202 193 193 187 187 185 181 180 179 177 169 175 169 163
325 328 311 305 323 314 298 289 315 338 266 222 222 356 353 347 343 339 334 328 324 321 318 317 317 313 306 303 289 281 271 256 226 207 272 190 197 191 187 187 186 185 181 181 177 175 171 172 165
317 302 289 299 335 327 308 301 309 321 224 242 293 340 341 338 335 334 330 326 320 317 313 311 309 303 301 297 290 275 289 260 219 216 262 194 198 192 187 191 187 187 186 180 179 176 174 169 168
323 311 309 310 313 319 307 300 309 311 221 253 293 317 330 332 334 332 327 322 318 315 312 308 303 296 288 284 291 279 268 253 237 220 233 308 196 195 194 192 190 188 184 181 182 182 173 171 173
334 294 320 311 323 281 310 264 220 187 228 229 255 312 321 328 334 327 325 321 318 315 310 304 299 293 283 267 270 261 270 256 243 230 212 305 198 193 197 192 192 190 188 185 184 185 184 172 171
318 329 312 310 316 313 3 303 250 198 263 243 264 318 329 332 332 328 323 318 316 312 307 300 296 289 282 267 270 268 259 258 247 233 223 278 196 185 198 194 194 193 189 188 186 188 192 184 180
296 311 309 308 255 295 106 273 245 241 278 319 317 322 327 331 331 327 322 316 312 309 303 297 293 285 279 267 260 259 261 257 245 234 227 279 220 184 199 193 195 195 191 190 189 187 190 197 190
327 308 307 199 217 245 118 7 273 285 316 316 321 322 328 330 328 325 319 315 311 307 301 294 289 281 273 264 250 243 236 236 239 233 232 265 198 180 195 193 195 196 193 191 190 193 193 196 197
355 348 338 307 300 318 182 309 265 301 307 302 313 321 328 328 326 324 322 318 313 307 301 294 286 276 269 262 249 239 234 238 227 232 234 224 185 185 189 193 194 195 195 192 192 193 196 197 199
355 10 19 311 316 312 300 231 298 307 322 314 319 325 325 325 325 322 321 317 315 308 300 292 281 274 267 259 246 233 224 224 224 222 233 223 192 192 188 193 194 196 197 194 195 195 197 197 200
351 20 354 284 259 271 266 281 278 15 318 328 328 327 324 324 321 321 321 316 312 306 296 289 278 270 262 253 244 232 222 220 222 218 224 230 233 193 185 194 192 195 199 197 197 196 197 196 200
3 2 291 347 308 302 284 298 268 318 341 333 330 326 323 322 320 319 317 315 311 305 297 287 274 266 256 247 238 228 218 214 213 209 217 221 211 190 183 195 193 195 198 198 199 200 198 199 201
205 74 9 277 278 305 308 292 21 303 331 333 328 323 321 318 315 314 313 313 310 306 296 286 274 262 251 239 231 223 217 210 208 205 207 206 207 185 189 194 194 196 197 200 199 203 202 200 200
359 131 26 314 321 267 279 271 288 332 331 325 320 318 316 312 310 311 311 313 312 308 298 287 274 258 246 233 224 219 213 203 206 211 196 204 209 208 197 188 193 197 197 201 199 201 202 202 201
Height
1516 1516 1519 1522 1525 1519 1509 1508 1502 1501 1502 1505 1505 1500 1497 1503 1498 1502 1510 1508 1507 1503 1502 1503 1505 1509 1511 1513 1514 1515 1518 1520 1523 1526 1528 1530 1533 1536 1538 1540 1543 1545 1546 1547 1548 1550 1553 1555 1557
1516 1518 1521 1521 1517 1512 1498 1502 1504 1501 1508 1508 1504 1502 1501 1502 1509 1510 1508 1507 1504 1501 1501 1502 1503 1508 1509 1512 1514 1515 1518 1521 1523 1525 1528 1530 1534 1536 1539 1541 1543 1546 1548 1550 1550 1552 1554 1557 1558
1517 1518 1522 1515 1506 1501 1493 1503 1505 1510 1512 1509 1507 1506 1507 1511 1512 1512 1512 1507 1503 1500 1499 1500 1502 1507 1509 1511 1513 1515 1517 1520 1524 1525 1527 1530 1534 1537 1539 1542 1544 1546 1549 1551 1553 1553 1555 1558 1560
1519 1522 1523 1515 1502 1502 1506 1517 1518 1514 1511 1513 1514 1508 1514 1513 1513 1512 1510 1506 1502 1499 1497 1498 1500 1504 1508 1511 1512 1513 1517 1520 1523 1526 1529 1531 1534 1537 1540 1542 1544 1547 1549 1552 1554 1555 1557 1559 1562
1519 1520 1512 1509 1504 1507 1520 1521 1519 1515 1514 1513 1514 1509 1516 1516 1514 1510 1507 1504 1500 1497 1496 1494 1497 1499 1507 1509 1511 1513 1516 1520 1523 1525 1529 1531 1535 1537 1539 1542 1545 1548 1551 1552 1555 1557 1559 1561 1564
1519 1519 1510 1497 1494 1511 1521 1522 1521 1518 1516 1515 1515 1514 1513 1514 1512 1507 1505 1503 1502 1496 1495 1492 1494 1497 1498 1508 1510 1512 1514 1518 1522 1525 1527 1531 1535 1537 1540 1542 1546 1549 1551 1554 1556 1557 1561 1563 1565
1514 1512 1499 1497 1502 1511 1524 1524 1522 1523 1519 1516 1520 1515 1513 1514 1511 1508 1505 1503 1502 1499 1495 1494 1492 1494 1496 1499 1507 1510 1511 1516 1519 1523 1526 1529 1533 1537 1540 1543 1546 1549 1552 1555 1558 1559 1562 1565 1567
1517 1514 1506 1507 1505 1511 1526 1526 1524 1524 1519 1520 1519 1512 1513 1513 1509 1507 1506 1503 1500 1499 1495 1492 1492 1491 1494 1498 1501 1507 1513 1514 1517 1521 1525 1528 1532 1536 1540 1543 1546 1549 1553 1555 1559 1560 1563 1566 1569
1518 1513 1503 1510 1524 1520 1528 1527 1525 1525 1522 1520 1518 1518 1517 1514 1510 1506 1503 1502 1498 1497 1494 1492 1490 1488 1490 1493 1497 1501 1507 1513 1516 1519 1523 1527 1531 1535 1539 1542 1545 1548 1552 1556 1560 1561 1563 1568 1571
1521 1516 1520 1531 1532 1529 1529 1528 1527 1526 1519 1518 1516 1516 1514 1511 1509 1506 1503 1500 1497 1494 1492 1490 1488 1487 1488 1488 1492 1498 1504 1511 1514 1516 1520 1525 1529 1532 1537 1541 1545 1548 1552 1556 1560 1564 1567 1571 1574
1527 1523 1532 1531 1531 1532 1531 1528 1527 1525 1518 1515 1516 1514 1512 1510 1508 1506 1503 1502 1497 1494 1492 1489 1487 1486 1486 1485 1489 1490 1494 1506 1508 1512 1517 1522 1525 1529 1533 1539 1544 1547 1550 1554 1561 1566 1570 1571 1577
1530 1532 1532 1531 1531 1531 1528 1527 1524 1524 1517 1517 1516 1514 1511 1509 1507 1504 1503 1500 1496 1493 1492 1487 1486 1481 1481 1481 1481 1485 1490 1483 1499 1506 1512 1515 1520 1525 1530 1536 1541 1545 1549 1553 1560 1563 1567 1571 1576
1531 1533 1533 1532 1530 1530 1529 1525 1523 1519 1518 1517 1515 1512 1510 1508 1506 1504 1502 1499 1495 1491 1489 1486 1484 1481 1477 1477 1481 1477 1474 1474 1484 1500 1505 1510 1515 1520 1526 1532 1536 1543 1548 1553 1556 1561 1566 1570 1575
1536 1535 1533 1531 1529 1529 1528 1522 1522 1516 1516 1515 1513 1511 1508 1507 1505 1502 1499 1495 1493 1491 1487 1485 1482 1481 1480 1483 1475 1477 1476 1473 1479 1496 1502 1506 1510 1516 1521 1526 1535 1541 1546 1551 1556 1559 1565 1569 1574
1538 1531 1527 1527 1529 1527 1527 1516 1514 1514 1514 1512 1509 1507 1505 1505 1504 1501 1498 1495 1491 1489 1486 1484 1480 1477 1469 1470 1470 1476 1473 1477 1479 1480 1499 1500 1505 1510 1515 1523 1532 1538 1543 1549 1554 1558 1563 1568 1573
1534 1530 1525 1522 1526 1525 1528 1510 1509 1511 1511 1509 1507 1506 1504 1504 1503 1500 1497 1494 1490 1487 1484 1481 1478 1476 1473 1473 1470 1467 1466 1474 1468 1477 1479 1495 1501 1506 1510 1520 1528 1534 1539 1545 1550 1556 1561 1567 1571
1533 1533 1529 1523 1525 1525 1525 1512 1504 1508 1510 1509 1508 1506 1504 1503 1501 1499 1496 1492 1488 1484 1480 1476 1475 1472 1469 1463 1465 1461 1463 1464 1469 1472 1476 1492 1496 1501 1506 1515 1523 1530 1536 1542 1548 1555 1559 1563 1570
1541 1537 1529 1525 1521 1524 1517 1505 1504 1506 1509 1508 1507 1505 1503 1502 1500 1496 1493 1489 1485 1481 1476 1472 1470 1467 1464 1463 1459 1457 1474 1465 1465 1465 1477 1477 1488 1496 1503 1510 1519 1526 1532 1538 1545 1549 1557 1562 1567
1548 1541 1534 1522 1521 1519 1508 1503 1499 1501 1506 1506 1505 1504 1502 1499 1497 1494 1489 1485 1479 1476 1471 1468 1465 1464 1461 1456 1457 1458 1446 1460 1457 1466 1471 1466 1477 1491 1495 1505 1513 1521 1528 1534 1541 1546 1551 1561 1566
1539 1532 1524 1518 1518 1521 1505 1500 1497 1500 1502 1503 1503 1500 1499 1496 1492 1488 1484 1479 1474 1469 1465 1462 1460 1458 1459 1458 1452 1451 1458 1456 1451 1457 1460 1474 1473 1482 1488 1499 1507 1515 1523 1531 1536 1543 1550 1558 1565
1534 1530 1528 1528 1517 1515 1511 1487 1493 1496 1498 1499 1499 1499 1497 1493 1489 1482 1476 1472 1468 1464 1459 1455 1453 1451 1451 1455 1456 1456 1449 1444 1453 1457 1457 1464 1464 1471 1481 1495 1501 1509 1517 1525 1533 1539 1545 1552 1564
1533 1530 1529 1523 1523 1504 1513 1496 1483 1489 1491 1493 1494 1493 1491 1488 1484 1479 1472 1466 1462 1458 1454 1449 1446 1443 1441 1443 1441 1442 1444 1436 1442 1451 1452 1457 1460 1464 1476 1490 1498 1505 1512 1521 1530 1536 1543 1549 1554
1538 1531 1523 1525 1523 1526 1512 1510 1476 1488 1482 1484 1489 1489 1487 1484 1478 1471 1465 1460 1455 1451 1447 1443 1439 1435 1433 1433 1433 1433 1431 1437 1442 1444 1447 1452 1453 1458 1470 1484 1493 1501 1508 1518 1526 1533 1541 1547 1552
1544 1526 1521 1522 1518 1507 1521 1514 1475 1474 1483 1484 1486 1485 1481 1476 1471 1466 1459 1452 1447 1443 1439 1435 1432 1427 1426 1425 1427 1430 1439 1438 1434 1436 1446 1450 1450 1456 1466 1479 1487 1498 1505 1513 1524 1531 1538 1544 1551
1544 1525 1505 1497 1497 1488 1516 1506 1476 1478 1480 1484 1484 1480 1475 1469 1463 1455 1448 1442 1437 1432 1429 1426 1423 1420 1419 1418 1420 1421 1419 1423 1426 1431 1443 1448 1446 1458 1458 1470 1481 1492 1502 1510 1521 1528 1536 1541 1546
1554 1552 1543 1539 1509 1504 1503 1504 1466 1480 1482 1484 1482 1476 1469 1460 1454 1447 1440 1432 1427 1421 1418 1415 1412 1410 1410 1409 1410 1416 1422 1424 1421 1424 1433 1437 1444 1455 1452 1463 1476 1487 1498 1508 1517 1525 1533 1539 1544
1553 1555 1563 1558 1543 1543 1493 1487 1478 1480 1480 1480 1477 1470 1462 1455 1446 1436 1430 1424 1417 1412 1407 1404 1400 1399 1399 1398 1399 1403 1404 1407 1413 1421 1430 1437 1442 1441 1446 1456 1467 1481 1494 1504 1514 1521 1529 1535 1541
1562 1564 1553 1550 1541 1522 1481 1483 1474 1474 1477 1477 1470 1464 1455 1445 1436 1427 1420 1412 1407 1401 1396 1392 1388 1386 1389 1388 1391 1395 1400 1405 1411 1416 1426 1433 1434 1440 1444 1449 1463 1475 1488 1499 1508 1517 1525 1531 1537
1560 1560 1560 1563 1557 1539 1517 1472 1477 1479 1477 1469 1465 1460 1450 1437 1426 1416 1408 1400 1394 1389 1384 1379 1376 1375 1376 1378 1381 1384 1389 1396 1405 1407 1421 1430 1427 1433 1443 1447 1458 1471 1482 1492 1502 1512 1520 1527 1533
1566 1564 1566 1562 1551 1546 1543 1498 1479 1481 1478 1474 1465 1454 1443 1433 1419 1408 1397 1387 1380 1375 1371 1367 1365 1363 1364 1368 1373 1376 1382 1387 1393 1403 1414 1422 1427 1431 1438 1444 1453 1467 1476 1486 1495 1504 1514 1522 1528